Погода в Палкино

Россия / Псковская область     57°32′22″N   28°00′46″E
темп.,
°C
ветер,
м/с
пор.,
м/с
влажн.,
%
обл.,
%
осадки,
мм/ч
давл.,
гПа
погр.,
м
15 апреля, чт
чт1500:00+4ссв4106867 0.0 1024336
03:00+3ссв4117651 0.0 1024386
06:00+1ссв4118494 0.0 1024356
09:00+5ссв6136397 0.0 1025700
12:00+8св7940100 0.0 10251071
15:00+10св71040100 0.0 10241270
18:00+9св61149100 0.0 10231249
21:00+7св61366100 0.1 10241038
16 апреля, пт
пт1600:00+6св61376100 0.4 1023805
03:00+5св51278100 0.4 1023677
06:00+4св61382100 0.0 1022537
09:00+6св61376100 0.0 1023604
12:00+10всв696597 0.0 1023815
15:00+12всв7963100 0.0 1023894
18:00+12всв6116785 0.0 1023909
21:00+10св61270100 0.1 1024716
17 апреля, сб
сб1700:00+9всв51272100 0.0 1025561
03:00+7всв5117296 0.0 1025476
06:00+5всв41172100 0.0 1025448
09:00+7всв5868100 0.0 1026512
12:00+11всв576182 0.0 1026802
15:00+13всв5757100 0.0 10271159
18:00+13всв4760100 0.0 10261296
21:00+9св387197 0.0 1027202
18 апреля, вс
вс1800:00+7св3116676 0.0 1027266
03:00+5св387667 0.0 1028178
06:00+4св398124 0.0 1028207
09:00+8всв48625 0.0 1028421
12:00+13всв57443 0.0 10271172
15:00+15всв56380 0.0 10271564
18:00+14всв45424 0.0 10261619
21:00+8св39630 0.0 1027188
19 апреля, пн
пн1900:00+6всв25710 0.0 102890
03:00+5всв22795 0.0 102828
06:00+4всв22835 0.0 102830
09:00+9в35641 0.0 1028349
12:00+13в35475 0.0 10281512
15:00+15вюв443931 0.0 10272116
18:00+15вюв354023 0.0 10261979
21:00+10всв236259 0.0 102638